Time,TemperatureF,DewpointF,PressureIn,WindDirection,WindDirectionDegrees,WindSpeedMPH,WindSpeedGustMPH,Humidity,HourlyPrecipIn,Conditions,Clouds,dailyrainin,SolarRadiationWatts/m^2,SoftwareType,DateUTC
2013-04-25 00:05:00,51.7,50.0,29.87,SW,220,10.0,-999.0,92,-99.99,,,0.00,0,weatherlink.com 1.10,2013-04-25 04:05:00,
2013-04-25 00:21:00,52.2,50.0,29.88,WSW,237,2.0,-999.0,93,-99.99,,,0.00,0,weatherlink.com 1.10,2013-04-25 04:21:00,
2013-04-25 00:36:00,52.5,51.0,29.88,SSW,200,6.0,-999.0,93,-99.99,,,0.00,0,weatherlink.com 1.10,2013-04-25 04:36:00,
2013-04-25 00:51:00,52.8,51.0,29.88,South,175,6.0,-999.0,92,-99.99,,,0.00,0,weatherlink.com 1.10,2013-04-25 04:51:00,
2013-04-25 01:06:00,53.3,51.0,29.88,SW,218,9.0,-999.0,92,-99.99,,,0.00,0,weatherlink.com 1.10,2013-04-25 05:06:00,
2013-04-25 01:21:00,53.8,52.0,29.88,WSW,244,3.0,-999.0,92,-99.99,,,0.00,0,weatherlink.com 1.10,2013-04-25 05:21:00,
2013-04-25 01:36:00,54.1,52.0,29.87,South,169,0.0,-999.0,91,-99.99,,,0.00,0,weatherlink.com 1.10,2013-04-25 05:36:00,
2013-04-25 01:51:00,54.6,52.0,29.86,SE,144,7.0,-999.0,91,-99.99,,,0.00,0,weatherlink.com 1.10,2013-04-25 05:51:00,
2013-04-25 02:06:00,54.8,52.0,29.85,SSE,159,11.0,-999.0,91,-99.99,,,0.00,0,weatherlink.com 1.10,2013-04-25 06:06:00,
2013-04-25 02:21:00,55.0,53.0,29.85,SE,126,15.0,-999.0,91,-99.99,,,0.00,0,weatherlink.com 1.10,2013-04-25 06:21:00,
2013-04-25 02:36:00,55.0,53.0,29.85,WSW,237,8.0,-999.0,91,-99.99,,,0.00,0,weatherlink.com 1.10,2013-04-25 06:36:00,
2013-04-25 02:51:00,55.0,53.0,29.85,SSW,208,4.0,-999.0,91,-99.99,,,0.00,0,weatherlink.com 1.10,2013-04-25 06:51:00,
2013-04-25 03:06:00,55.1,53.0,29.84,SE,128,2.0,-999.0,91,-99.99,,,0.00,0,weatherlink.com 1.10,2013-04-25 07:06:00,
2013-04-25 03:21:00,55.2,53.0,29.85,SW,228,7.0,-999.0,91,-99.99,,,0.00,0,weatherlink.com 1.10,2013-04-25 07:21:00,
2013-04-25 03:36:00,55.3,53.0,29.85,WSW,251,7.0,-999.0,91,-99.99,,,0.00,0,weatherlink.com 1.10,2013-04-25 07:36:00,
2013-04-25 03:51:00,55.4,53.0,29.85,SW,228,6.0,-999.0,91,-99.99,,,0.00,0,weatherlink.com 1.10,2013-04-25 07:51:00,
2013-04-25 04:06:00,55.4,53.0,29.86,WSW,240,5.0,-999.0,90,-99.99,,,0.00,0,weatherlink.com 1.10,2013-04-25 08:06:00,
2013-04-25 04:21:00,55.1,53.0,29.86,West,269,1.0,-999.0,91,-99.99,,,0.00,0,weatherlink.com 1.10,2013-04-25 08:21:00,
2013-04-25 04:36:00,54.8,52.0,29.87,South,175,4.0,-999.0,91,-99.99,,,0.00,0,weatherlink.com 1.10,2013-04-25 08:36:00,
2013-04-25 04:51:00,54.6,52.0,29.87,West,270,2.0,-999.0,91,-99.99,,,0.00,0,weatherlink.com 1.10,2013-04-25 08:51:00,
2013-04-25 05:06:00,54.3,52.0,29.87,ESE,110,4.0,-999.0,91,-99.99,,,0.00,0,weatherlink.com 1.10,2013-04-25 09:06:00,
2013-04-25 05:21:00,54.1,52.0,29.88,WSW,244,0.0,-999.0,91,-99.99,,,0.00,0,weatherlink.com 1.10,2013-04-25 09:21:00,
2013-04-25 05:36:00,53.9,52.0,29.89,WSW,242,4.0,-999.0,92,-99.99,,,0.00,0,weatherlink.com 1.10,2013-04-25 09:36:00,
2013-04-25 05:51:00,53.8,52.0,29.90,WSW,239,0.0,-999.0,92,-99.99,,,0.00,0,weatherlink.com 1.10,2013-04-25 09:51:00,
2013-04-25 06:06:00,53.8,52.0,29.91,West,278,0.0,-999.0,92,-99.99,,,0.00,5,weatherlink.com 1.10,2013-04-25 10:06:00,
2013-04-25 06:21:00,53.7,52.0,29.92,WNW,282,0.0,-999.0,92,-99.99,,,0.00,0,weatherlink.com 1.10,2013-04-25 10:21:00,
2013-04-25 06:36:00,53.7,52.0,29.93,West,269,0.0,-999.0,92,-99.99,,,0.02,7,weatherlink.com 1.10,2013-04-25 10:36:00,
2013-04-25 06:51:00,53.5,52.0,29.95,West,280,0.0,-999.0,93,-99.99,,,0.06,11,weatherlink.com 1.10,2013-04-25 10:51:00,
2013-04-25 07:06:00,52.8,51.0,29.98,NW,326,14.0,-999.0,92,-99.99,,,0.07,11,weatherlink.com 1.10,2013-04-25 11:06:00,
2013-04-25 07:21:00,51.0,49.0,29.99,NNW,339,12.0,-999.0,91,-99.99,,,0.08,23,weatherlink.com 1.10,2013-04-25 11:21:00,
2013-04-25 07:36:00,49.9,47.0,30.00,NW,315,4.0,-999.0,90,-99.99,,,0.08,26,weatherlink.com 1.10,2013-04-25 11:36:00,
2013-04-25 07:51:00,49.4,47.0,30.00,NNW,333,7.0,-999.0,90,-99.99,,,0.09,74,weatherlink.com 1.10,2013-04-25 11:51:00,
2013-04-25 08:06:00,48.7,45.0,30.00,NW,314,5.0,-999.0,87,-99.99,,,0.09,37,weatherlink.com 1.10,2013-04-25 12:06:00,
2013-04-25 08:22:00,48.4,44.0,30.01,WNW,300,4.0,-999.0,85,-99.99,,,0.09,90,weatherlink.com 1.10,2013-04-25 12:22:00,
2013-04-25 08:37:00,48.5,43.0,30.01,NW,315,7.0,-999.0,81,-99.99,,,0.09,121,weatherlink.com 1.10,2013-04-25 12:37:00,
2013-04-25 08:52:00,48.8,42.0,30.03,NW,323,4.0,-999.0,78,-99.99,,,0.09,46,weatherlink.com 1.10,2013-04-25 12:52:00,
2013-04-25 09:07:00,48.7,42.0,30.02,North,351,6.0,-999.0,77,-99.99,,,0.09,63,weatherlink.com 1.10,2013-04-25 13:07:00,
2013-04-25 09:22:00,47.7,43.0,30.04,NNW,342,2.0,-999.0,82,-99.99,,,0.10,186,weatherlink.com 1.10,2013-04-25 13:22:00,
2013-04-25 09:37:00,47.3,42.0,30.05,NNW,335,5.0,-999.0,83,-99.99,,,0.10,258,weatherlink.com 1.10,2013-04-25 13:37:00,
2013-04-25 09:52:00,48.2,42.0,30.05,NW,321,1.0,-999.0,80,-99.99,,,0.10,148,weatherlink.com 1.10,2013-04-25 13:52:00,
2013-04-25 10:07:00,48.8,42.0,30.06,West,276,5.0,-999.0,77,-99.99,,,0.10,178,weatherlink.com 1.10,2013-04-25 14:07:00,
2013-04-25 10:22:00,49.4,42.0,30.05,NNW,344,2.0,-999.0,75,-99.99,,,0.10,411,weatherlink.com 1.10,2013-04-25 14:22:00,
2013-04-25 10:37:00,51.0,42.0,30.07,WNW,284,2.0,-999.0,70,-99.99,,,0.10,392,weatherlink.com 1.10,2013-04-25 14:37:00,
2013-04-25 10:52:00,52.0,41.0,30.07,West,277,4.0,-999.0,67,-99.99,,,0.10,396,weatherlink.com 1.10,2013-04-25 14:52:00,
2013-04-25 11:07:00,52.3,39.0,30.06,NW,321,5.0,-999.0,62,-99.99,,,0.10,425,weatherlink.com 1.10,2013-04-25 15:07:00,
2013-04-25 11:22:00,53.2,39.0,30.06,North,355,11.0,-999.0,60,-99.99,,,0.10,1037,weatherlink.com 1.10,2013-04-25 15:22:00,
2013-04-25 11:37:00,54.5,39.0,30.06,NW,325,0.0,-999.0,57,-99.99,,,0.10,770,weatherlink.com 1.10,2013-04-25 15:37:00,
2013-04-25 11:52:00,55.0,39.0,30.06,NNW,338,4.0,-999.0,56,-99.99,,,0.10,888,weatherlink.com 1.10,2013-04-25 15:52:00,
2013-04-25 12:07:00,56.1,38.0,30.07,NNW,336,8.0,-999.0,52,-99.99,,,0.10,893,weatherlink.com 1.10,2013-04-25 16:07:00,
2013-04-25 12:22:00,57.1,38.0,30.07,NW,309,2.0,-999.0,50,-99.99,,,0.10,902,weatherlink.com 1.10,2013-04-25 16:22:00,
2013-04-25 12:37:00,58.6,40.0,30.08,NW,318,9.0,-999.0,50,-99.99,,,0.10,905,weatherlink.com 1.10,2013-04-25 16:37:00,
2013-04-25 12:52:00,59.5,39.0,30.08,NW,315,6.0,-999.0,46,-99.99,,,0.10,914,weatherlink.com 1.10,2013-04-25 16:52:00,
2013-04-25 13:07:00,60.0,39.0,30.08,South,169,0.0,-999.0,46,-99.99,,,0.10,902,weatherlink.com 1.10,2013-04-25 17:07:00,
2013-04-25 13:22:00,60.5,41.0,30.09,NE,42,0.0,-999.0,49,-99.99,,,0.10,895,weatherlink.com 1.10,2013-04-25 17:22:00,
2013-04-25 13:37:00,61.2,43.0,30.09,ESE,109,6.0,-999.0,51,-99.99,,,0.10,886,weatherlink.com 1.10,2013-04-25 17:37:00,
2013-04-25 13:52:00,58.9,40.0,30.08,ESE,104,1.0,-999.0,50,-99.99,,,0.10,872,weatherlink.com 1.10,2013-04-25 17:52:00,
2013-04-25 14:07:00,60.1,42.0,30.08,ENE,60,0.0,-999.0,52,-99.99,,,0.10,854,weatherlink.com 1.10,2013-04-25 18:07:00,
2013-04-25 14:22:00,60.8,41.0,30.08,ENE,76,0.0,-999.0,48,-99.99,,,0.10,870,weatherlink.com 1.10,2013-04-25 18:22:00,
2013-04-25 14:37:00,61.8,40.0,30.08,East,96,0.0,-999.0,45,-99.99,,,0.10,735,weatherlink.com 1.10,2013-04-25 18:37:00,
2013-04-25 14:52:00,62.3,38.0,30.09,ESE,112,0.0,-999.0,41,-99.99,,,0.10,758,weatherlink.com 1.10,2013-04-25 18:52:00,
2013-04-25 15:07:00,63.4,39.0,30.08,SE,130,0.0,-999.0,41,-99.99,,,0.10,621,weatherlink.com 1.10,2013-04-25 19:07:00,
2013-04-25 15:22:00,62.9,39.0,30.08,SE,125,1.0,-999.0,41,-99.99,,,0.10,417,weatherlink.com 1.10,2013-04-25 19:22:00,
2013-04-25 15:37:00,61.3,40.0,30.08,ESE,111,0.0,-999.0,46,-99.99,,,0.10,715,weatherlink.com 1.10,2013-04-25 19:37:00,
2013-04-25 15:53:00,62.1,40.0,30.08,East,91,0.0,-999.0,45,-99.99,,,0.10,679,weatherlink.com 1.10,2013-04-25 19:53:00,
2013-04-25 16:08:00,61.2,41.0,30.09,SE,124,0.0,-999.0,47,-99.99,,,0.10,541,weatherlink.com 1.10,2013-04-25 20:08:00,
2013-04-25 16:23:00,60.9,40.0,30.09,South,178,2.0,-999.0,47,-99.99,,,0.10,439,weatherlink.com 1.10,2013-04-25 20:23:00,
2013-04-25 16:38:00,59.6,41.0,30.09,ESE,115,2.0,-999.0,50,-99.99,,,0.10,541,weatherlink.com 1.10,2013-04-25 20:38:00,
2013-04-25 16:53:00,59.6,39.0,30.10,ESE,103,6.0,-999.0,47,-99.99,,,0.10,424,weatherlink.com 1.10,2013-04-25 20:53:00,
2013-04-25 17:08:00,59.3,40.0,30.10,ENE,75,0.0,-999.0,50,-99.99,,,0.10,258,weatherlink.com 1.10,2013-04-25 21:08:00,
2013-04-25 17:38:00,58.7,37.0,30.11,ESE,115,0.0,-999.0,45,-99.99,,,0.10,214,weatherlink.com 1.10,2013-04-25 21:38:00,
2013-04-25 17:53:00,58.5,36.0,30.11,SE,146,2.0,-999.0,43,-99.99,,,0.10,120,weatherlink.com 1.10,2013-04-25 21:53:00,
2013-04-25 18:08:00,58.0,37.0,30.11,SSE,150,0.0,-999.0,46,-99.99,,,0.10,77,weatherlink.com 1.10,2013-04-25 22:08:00,
2013-04-25 18:23:00,57.7,38.0,30.11,SE,128,0.0,-999.0,49,-99.99,,,0.10,58,weatherlink.com 1.10,2013-04-25 22:23:00,
2013-04-25 18:38:00,57.7,40.0,30.12,SE,130,0.0,-999.0,53,-99.99,,,0.10,104,weatherlink.com 1.10,2013-04-25 22:38:00,
2013-04-25 18:53:00,57.5,41.0,30.12,SSE,155,0.0,-999.0,54,-99.99,,,0.10,69,weatherlink.com 1.10,2013-04-25 22:53:00,
2013-04-25 19:08:00,57.1,42.0,30.12,SSE,165,4.0,-999.0,57,-99.99,,,0.10,26,weatherlink.com 1.10,2013-04-25 23:08:00,
2013-04-25 19:23:00,56.4,42.0,30.13,SSE,152,1.0,-999.0,60,-99.99,,,0.10,12,weatherlink.com 1.10,2013-04-25 23:23:00,
2013-04-25 19:38:00,55.8,43.0,30.14,SSE,156,0.0,-999.0,62,-99.99,,,0.10,0,weatherlink.com 1.10,2013-04-25 23:38:00,
2013-04-25 19:53:00,55.2,43.0,30.15,SSE,152,0.0,-999.0,63,-99.99,,,0.10,0,weatherlink.com 1.10,2013-04-25 23:53:00,
2013-04-25 20:08:00,54.1,41.0,30.16,South,190,0.0,-999.0,62,-99.99,,,0.10,0,weatherlink.com 1.10,2013-04-26 00:08:00,
2013-04-25 20:23:00,53.5,41.0,30.17,SSE,160,0.0,-999.0,63,-99.99,,,0.10,0,weatherlink.com 1.10,2013-04-26 00:23:00,
2013-04-25 20:38:00,52.7,40.0,30.18,South,188,0.0,-999.0,62,-99.99,,,0.10,0,weatherlink.com 1.10,2013-04-26 00:38:00,
2013-04-25 20:53:00,52.2,39.0,30.18,SSE,168,0.0,-999.0,62,-99.99,,,0.10,0,weatherlink.com 1.10,2013-04-26 00:53:00,
2013-04-25 21:08:00,51.7,40.0,30.19,SSE,168,0.0,-999.0,64,-99.99,,,0.10,0,weatherlink.com 1.10,2013-04-26 01:08:00,
2013-04-25 21:23:00,51.0,40.0,30.20,SSE,168,0.0,-999.0,65,-99.99,,,0.10,0,weatherlink.com 1.10,2013-04-26 01:23:00,
2013-04-25 21:38:00,50.1,39.0,30.20,SSE,168,0.0,-999.0,67,-99.99,,,0.10,0,weatherlink.com 1.10,2013-04-26 01:38:00,
2013-04-25 21:53:00,49.4,40.0,30.20,SSE,168,0.0,-999.0,69,-99.99,,,0.10,0,weatherlink.com 1.10,2013-04-26 01:53:00,
2013-04-25 22:08:00,48.7,40.0,30.20,SSE,168,0.0,-999.0,71,-99.99,,,0.10,0,weatherlink.com 1.10,2013-04-26 02:08:00,
2013-04-25 22:23:00,48.0,40.0,30.20,SSE,168,0.0,-999.0,74,-99.99,,,0.10,0,weatherlink.com 1.10,2013-04-26 02:23:00,
2013-04-25 22:38:00,47.2,40.0,30.21,SSE,168,0.0,-999.0,76,-99.99,,,0.10,0,weatherlink.com 1.10,2013-04-26 02:38:00,
2013-04-25 22:53:00,46.2,40.0,30.21,SSE,168,0.0,-999.0,79,-99.99,,,0.10,0,weatherlink.com 1.10,2013-04-26 02:53:00,
2013-04-25 23:08:00,45.5,40.0,30.21,SSE,168,0.0,-999.0,81,-99.99,,,0.10,0,weatherlink.com 1.10,2013-04-26 03:08:00,
2013-04-25 23:23:00,44.9,40.0,30.22,SSE,168,0.0,-999.0,82,-99.99,,,0.10,0,weatherlink.com 1.10,2013-04-26 03:23:00,
2013-04-25 23:38:00,44.4,40.0,30.22,SSE,168,0.0,-999.0,84,-99.99,,,0.10,0,weatherlink.com 1.10,2013-04-26 03:38:00,
2013-04-25 23:53:00,44.0,40.0,30.23,SSE,168,0.0,-999.0,84,-99.99,,,0.10,0,weatherlink.com 1.10,2013-04-26 03:53:00,